Regional Weather Roundup
Issued by NWS Cleveland, OH

Home | Current Version | Previous Version | Graphics & Text | Print | Product List | Glossary On
Versions: 1 2 3 4 5 6 7 8 9 10 11 12 13 14 15 16 17 18 19 20 21 22 23 24 25 26 27 28 29 30 31 32 33 34 35 36 37 38 39 40 41 42 43 44 45 46 47 48 49 50
000
ASUS41 KCLE 190302
RWRCLE
OHIO REGIONAL WEATHER ROUNDUP
NATIONAL WEATHER SERVICE CLEVELAND, OH
1100 PM EDT MON SEP 18 2017

NOTE: "FAIR" INDICATES FEW OR NO CLOUDS BELOW 12,000 FEET WITH NO
SIGNIFICANT WEATHER AND/OR OBSTRUCTIONS TO VISIBILITY.

OHZ001>008-015>018-024>027-034-035-043-044-190400-
   NORTHWEST OHIO

CITY           SKY/WX    TMP DP  RH WIND       PRES   REMARKS
DEFIANCE       PTCLDY    67  65  93 E7        30.03S FOG
FINDLAY        CLOUDY    71  67  87 E7        30.02F FOG
TOLEDO EXPRESS CLOUDY    66  32  28 E5        30.04S
TOLEDO EXEC    CLOUDY    68  65  90 NE3       30.04F
LIMA           CLOUDY    67  67 100 E5        30.03S
$$

OHZ009>014-019>023-028>033-038-089-190400-
   NORTHEAST OHIO

CITY           SKY/WX    TMP DP  RH WIND       PRES   REMARKS
CLE-HOPKINS    CLOUDY    73  65  75 N5        30.06S
CLE-LAKEFRONT  CLEAR     70  66  87 NE5       30.03S
CUY CO. ARPT   PTCLDY    68  63  83 CALM      30.06R
LORAIN-ELYRIA  CLOUDY    68  60  75 CALM      30.05S
ASHTABULA      CLEAR     62  61  96 CALM      30.07R
AKRON-CANTON   CLEAR     68  60  75 N3        30.06R
WOOSTER        CLEAR     61  60  97 CALM      30.06R
MANSFIELD      MOCLDY    68  64  87 NE5       30.06S
YOUNGSTOWN     PTCLDY    64  63  96 E6        30.06R
$$

OHZ042-051>053-060>062-070>072-077>081-190400-
  SOUTHWEST OHIO

CITY           SKY/WX    TMP DP  RH WIND       PRES   REMARKS
CINC-COVINGTON MOCLDY    72  69  90 CALM      30.02S
CINC-LUNKEN    PTCLDY    70  70 100 CALM      30.02S FOG
HAMILTON       CLOUDY    71  69  93 CALM      30.02F
DAYTON         CLOUDY    70  66  87 CALM      30.03F
WRIGHT-PAT AFB MOCLDY    69  69 100 CALM      30.02F
DAYTON GENERAL CLOUDY    71  66  84 SE5       30.02F
WILMINGTON     CLOUDY    69  67  93 NE3       30.04S
$$

OHZ036-037-039>041-045>050-054>059-063>069-073>076-082>088-190400-
  CENTRAL AND SOUTHEAST OHIO

CITY           SKY/WX    TMP DP  RH WIND       PRES   REMARKS
COLUMBUS       CLOUDY    72  66  81 CALM      30.03S
OSU AIRPORT    CLOUDY    71  66  84 CALM      30.03S
BOLTON FIELD   CLOUDY    70  67  91 CALM      30.04S
RICKENBACK AFB NOT AVBL
NEWARK         CLOUDY    70  67  90 CALM      30.04R
MARION         MOCLDY    69  63  81 E3        30.04S
LANCASTER      CLOUDY    67  66  97 CALM      30.05R
ZANESVILLE     CLEAR     67  63  87 CALM      30.05R
NEW PHILLY     NOT AVBL
$$




USA.gov is the U.S. government's official web portal to all federal, state and local government web resources and services.